Accueil
METAR-TAF:

METAR-TAF

Aéroports :

Pontoise, France

Aéroport de Pontoise - Cormeilles-en-Vexin

latitude: 49-05-48N, longitude: 002-02-27E, altitude: 99 m

Observation

Le bulletin a été fait il y a 19 minutes, à 10:30 UTC
Vent 11 kt de sud-ouest
Température 18°C
Humidité 59%
Pression 998 hPa
Visibilité 10 km ou plus
Nuages fragmentés à une hauteur de 3700 ft
Ciel couvert à une hauteur de 4300 ft

METAR: LFPT 291030Z AUTO 22011KT 9999 BKN037 OVC043 18/10 Q0998

Heure: 12:49 (10:49 UTC)


TAF: absent

Observations et prévisions météorologiques de plus de 4000 aéroports (messages METAR et TAF).

Les stations disponibles sont représentées par des disques jaunes et rouges sur la carte.

Passer la souris dessus pour voir le nom de la station.

Cliquer dessus pour voir les observations et prévisions météorologiques.

Pour changer de carte: cliquez sur les boutons verts avec une croix noire pour zoomer, sur le bouton vert avec un tiret pour effectuer un zoom arrière, ou sur les flèches vertes pour les cartes adjacentes.


METAR-TAF: